Location: Bailleul
(50.3375°N, 2.8513°E)
Time: 04:47:32
(UTC+00:00)

Cosmos 389 Rocket - Pass Details

Date: 19 April 2021
Orbit: 441 x 472 km, 81.1° (Epoch: 09 May)

Event Time Altitude Azimuth Distance (km) Brightness Sun altitude
Exits shadow 19:26:08 - 142° (SE) 1,951 5.1 -6.2°
Reaches altitude 10° 19:27:15 10° 130° (SE) 1,611 4.6 -6.3°
Maximum altitude 19:29:34 17° 89° (E) 1,256 4.1 -6.7°
Drops below altitude 10° 19:31:56 10° 47° (NE) 1,632 5.0 -7.0°
Sets 19:34:34 0° 27° (NNE) 2,521 6.2 -7.4°
